Location: Laguemie
(45.2426°N, 1.7810°E)
Time: 07:38:30
(UTC+00:00)

Daily predictions for brighter satellites

Satellite Brightness Start Highest point End
(mag) Time Altitude Azimuth Time Altitude Azimuth Time Altitude Azimuth
Cosmos 1452 Rocket 3.5 20:13:15 10° SSW 20:18:32 81° ESE 20:23:50 10° NNE
Resurs 1-3 4.0 20:14:44 10° S 20:19:05 67° WSW 20:23:29 10° NNW
Cosmos 2219 Rocket 3.4 20:17:53 10° SSE 20:22:09 22° E 20:26:26 10° NE
Cosmos 2333 Rocket 3.2 20:18:39 10° SSE 20:23:22 27° ESE 20:28:06 10° NE
FALCON 9 DEB 3.8 20:22:09 10° SSW 20:24:51 27° SE 20:27:35 10° ENE
Cosmos 1850 Rocket 4.1 20:22:19 10° NNW 20:27:39 83° ENE 20:32:54 10° SSE
Cosmos 1758 3.5 20:23:43 10° NNW 20:27:41 76° W 20:31:38 10° S
Lacrosse 5 rocket 1.0 20:24:52 10° SW 20:28:33 63° SE 20:32:08 10° NE
Cosmos 1025 Rocket 4.0 20:24:46 10° SSE 20:28:34 30° E 20:32:23 10° NNE
ERS-1 Rocket 4.3 20:24:49 10° ESE 20:28:56 26° ENE 20:33:06 10° N
Cosmos 1844 4.0 20:24:57 10° NNW 20:30:26 54° ENE 20:35:55 10° SE
Spot 2 Rocket 4.2 20:28:53 10° SE 20:33:35 40° ENE 20:38:20 10° N
Cosmos 1727 Rocket 4.0 20:27:59 10° S 20:34:18 84° E 20:40:35 10° N
Cosmos 1331 Rocket 4.2 20:30:36 10° S 20:35:39 53° ESE 20:40:48 10° NNE
DNEPR-1 R/B 4.5 20:35:26 10° NNW 20:39:24 38° NE 20:43:31 10° ESE
FALCON 9 DEB 2.9 20:37:23 10° SW 20:40:24 53° SE 20:43:26 10° ENE
CENTAUR R/B 4.2 20:36:19 10° WSW 20:42:05 41° NW 20:48:55 10° NNE
KORONAS-FOTON 3.7 20:38:56 10° S 20:42:42 71° E 20:46:28 10° NNE
Cosmos 1726 4.0 20:39:39 10° NNW 20:42:50 29° W 20:46:01 10° SSW
CARTOSAT-1 4.2 20:40:17 11° SE 20:44:13 42° ENE 20:48:18 10° N
SL-14 R/B 4.4 20:41:31 11° SSE 20:44:48 27° E 20:48:14 10° NNE
Terra 3.2 20:41:27 10° ESE 20:45:16 25° ENE 20:49:07 10° N
Cosmos 2360 Rocket 2.2 20:40:27 10° SSW 20:46:06 85° ESE 20:51:47 10° NNE
SPOT 1/Viking Rocket 3.6 20:41:03 10° SSE 20:46:10 74° ENE 20:51:19 10° N
Cosmos 1674 2.5 20:43:02 10° S 20:46:44 80° E 20:50:27 10° N
OBJECT-B 3.9 20:45:48 10° WSW 20:46:45 11° W 20:47:42 10° WNW
FALCON 9 DEB 3.0 20:45:22 10° SW 20:48:22 48° SE 20:51:24 10° ENE
CZ-2C R/B 3.8 20:44:07 10° NNE 20:48:54 70° ESE 20:53:38 10° S
Cosmos 2322 Rocket 3.1 20:44:43 10° SW 20:50:18 55° WNW 20:55:56 10° NNE
SL-16 R/B 3.5 20:45:03 10° SW 20:50:26 44° WNW 20:55:52 10° NNE
FALCON 9 DEB 2.8 20:47:52 10° SW 20:50:56 63° SE 20:54:01 10° ENE
Cosmos 1953 2.3 20:47:53 10° N 20:51:59 86° E 20:56:02 10° S
SPOT 5 3.6 20:48:16 12° SE 20:52:38 40° ENE 20:57:08 10° N
USA 245 4.2 20:48:18 10° SSE 20:53:19 77° ENE 20:59:17 10° N
Cosmos 1975 Rocket 3.2 20:49:34 10° SSW 20:53:55 79° W 20:58:22 10° N
Cosmos 1802 Rocket 4.2 20:49:45 10° N 20:56:01 64° E 21:01:57 12° SSE
Cosmos 1302 Rocket 4.5 20:52:09 10° S 20:57:03 41° ESE 21:01:57 10° NE
Cosmos 1459 Rocket 3.9 20:51:22 10° N 20:57:28 79° E 21:03:32 10° SSE
Cosmos 1300 3.7 21:00:28 10° N 21:03:57 33° ENE 21:06:19 17° SE
Lacrosse 5 4.0 21:02:03 10° W 21:05:08 16° WSW 21:08:13 10° SSW
Resurs 01 Rocket 2.9 21:01:11 10° SSW 21:05:16 38° W 21:09:24 10° NNW
Meteor 1-16 Rocket 4.4 21:01:43 10° NNW 21:07:08 70° W 21:12:25 10° S
Cosmos 1000 Rocket 4.5 21:03:35 10° S 21:09:44 89° W 21:15:55 10° N
Cosmos 1340 2.8 21:07:28 14° S 21:10:36 55° E 21:14:18 10° NNE
Cosmos 2322 3.7 21:08:11 10° SSW 21:13:46 67° ESE 21:19:24 10° NNE
COSMOS 2428 3.0 21:10:03 10° S 21:15:31 48° ESE 21:21:02 10° NE
Aureole 1 Rocket 4.5 21:09:24 10° NNW 21:15:33 69° WSW 21:22:44 12° S
Cosmos 2278 Rocket 3.5 21:11:27 10° N 21:16:25 30° NE 21:20:55 12° ESE
Cosmos 1844 Rocket 3.2 21:12:05 10° NNW 21:17:39 56° WSW 21:22:30 13° S
Cosmos 389 Rocket 4.2 21:20:19 10° NNE 21:22:54 20° ENE 21:24:17 16° ESE
Cosmos 1867 4.1 21:19:26 10° NNW 21:24:48 51° NE 21:28:54 17° ESE
ATLAS 2A CENTAUR R/B 4.3 21:19:31 10° SW 21:25:23 14° SSW 21:27:33 13° S
Cosmos 1864 Rocket 4.5 21:20:15 10° N 21:26:28 80° E 21:31:18 17° SSE
Cosmos 968 Rocket 3.7 21:25:07 10° NNW 21:30:11 59° ENE 21:33:29 21° SE
Cosmos 1626 3.0 21:30:01 10° SSW 21:33:35 47° WNW 21:37:11 10° N
Cosmos 1486 Rocket 4.5 21:30:34 10° NNW 21:35:40 50° ENE 21:38:52 21° SE
Cosmos 1544 Rocket 4.2 21:31:27 10° NNW 21:35:48 52° W 21:39:23 14° SSW
Cosmos 2123 Rocket 4.0 21:29:55 10° S 21:36:14 89° W 21:42:36 10° N
Cosmos 2061 Rocket 4.1 21:31:15 10° N 21:37:42 83° W 21:42:50 17° S
Meteor 2-10 Rocket 3.9 21:34:55 10° N 21:39:49 48° ENE 21:42:36 23° SE
Uosat 12 SS-18 rocket 4.1 21:35:48 10° SSW 21:40:05 69° ESE 21:45:02 10° NE
Cosmos 1992 Rocket 4.5 21:37:59 22° SSE 21:40:55 42° ESE 21:45:49 10° NE
Cosmos 2233 Rocket 4.1 21:35:22 10° N 21:41:30 66° E 21:45:35 22° SSE
ARIANE 5 R/B 3.2 21:38:34 16° S 21:41:54 52° W 21:46:19 10° NNW
Cosmos 1346 Rocket 3.2 21:47:04 30° SSE 21:48:37 46° E 21:52:29 10° NNE
Cosmos 405 3.7 21:48:29 10° NNW 21:51:49 45° W 21:53:33 23° SSW
ATLAS CENTAUR R/B 2.3 21:48:02 10° NW 21:52:12 42° WSW 21:54:30 24° S
Cosmos 1980 4.3 21:51:14 25° SSE 21:53:54 39° ESE 21:59:08 10° NE
BREEZE-M DEB (TANK) 3.9 21:41:18 10° SW 21:54:56 49° SSE 21:58:50 10° ENE
ATLAS 3B R/B 3.0 21:49:26 10° SW 21:55:57 68° NW 22:02:44 10° NE
SL-4 R/B 2.0 21:54:18 10° SW 21:58:24 54° SE 22:02:12 10° ENE
FALCON 9 DEB 4.2 21:57:27 10° W 22:00:27 43° NNW 22:03:28 10° NE
Cosmos 2219 Rocket 2.7 22:00:01 10° SW 22:05:38 59° WNW 22:11:16 10° NNE
Meteor 2-5 Rocket 4.0 22:01:10 13° SSW 22:06:04 67° WNW 22:11:42 10° N
Cosmos 2333 Rocket 3.1 22:01:45 10° SW 22:07:20 51° WNW 22:12:55 10° NNE
ERS-1 Rocket 3.8 22:04:07 18° SSW 22:07:30 43° W 22:12:19 10° NNW
Lacrosse 5 rocket 3.6 22:04:51 10° W 22:07:53 24° NNW 22:10:52 10° NNE
Cosmos 1607 4.3 22:02:25 10° NNW 22:08:49 62° NE 22:12:53 22° SE
Cosmos 2228 3.0 22:07:52 10° N 22:12:18 87° ENE 22:14:06 35° S
Iridium 2 4.1 22:12:19 39° SE 22:13:06 46° E 22:16:42 10° NNE
USA 215 3.5 22:14:45 10° ENE 22:21:01 46° SE 22:25:28 19° SSW
Terra 2.7 22:20:12 22° SSW 22:22:48 41° W 22:27:19 10° NNW
SL-16 R/B 3.5 22:23:55 22° ESE 22:24:54 23° E 22:29:14 10° NE
Cosmos 2237 Rocket 2.2 22:23:45 28° S 22:26:41 66° ESE 22:32:16 10° NNE
Cosmos 1455 2.2 22:25:24 10° N 22:29:12 65° E 22:29:59 50° SE
Cosmos 1184 Rocket 3.2 22:29:49 47° E 22:29:49 47° E 22:32:52 10° NNE
Cosmos 1464 Rocket 4.3 22:25:00 10° N 22:31:18 60° ENE 22:34:26 30° SE
H-2A R/B 4.5 22:29:51 10° N 22:33:43 42° WNW 22:36:19 18° SW
Cosmos 192 4.4 22:33:47 38° SSE 22:35:28 61° ESE 22:40:20 10° NNE
Cosmos 1503 Rocket 4.0 22:30:20 10° NNW 22:35:45 87° WSW 22:37:58 37° SSE
GEOS 3 Rocket 4.0 22:38:08 24° ESE 22:41:17 61° NE 22:46:34 10° NNW
ATLAS CENTAUR R/B 3.2 22:40:45 35° S 22:42:45 54° ESE 22:53:27 10° NE
USA 267 3.9 22:48:25 10° E 22:54:44 53° NNE 23:01:04 10° NW
Okean 1-7 Rocket 3.6 22:54:15 49° SSE 22:55:18 70° E 22:59:44 10° NNE
Cosmos 389 Rocket 4.1 22:54:40 10° NW 22:57:30 24° W 22:58:04 23° WSW
BREEZE-M DEB (TANK) 3.4 22:55:50 10° W 22:58:59 55° N 23:07:24 10° ENE
COSMOS 2428 4.4 22:54:58 10° WSW 23:00:01 31° NW 23:05:05 10° N
Cosmos 2278 Rocket 2.7 22:55:17 10° NW 23:00:43 49° WSW 23:02:45 34° SSW
Cosmos 1726 Rocket 4.4 22:58:24 10° NNW 23:02:38 43° W 23:03:59 33° SW
Cosmos 2297 4.3 22:57:47 10° NNW 23:03:16 48° ENE 23:06:10 26° ESE
Cosmos 2058 Rocket 3.1 22:58:55 10° NNW 23:03:20 70° W 23:04:24 49° SSW
Cosmos 2034 Rocket 3.9 23:01:16 10° N 23:07:28 78° E 23:10:01 38° SSE
Centaur D AC-29 4.4 23:04:34 10° WSW 23:07:52 11° SW 23:09:10 11° SW
SJ 16-02 2.1 23:11:59 10° N 23:16:12 44° ENE 23:17:28 34° ESE
Meteor 1-21 Rocket 4.3 23:14:30 35° SSW 23:16:58 73° WNW 23:22:44 10° N
Cosmos 1777 Rocket 3.9 23:15:59 10° NNW 23:21:18 84° WSW 23:22:57 46° SSE
Spot 4 4.2 23:20:17 41° SSW 23:21:32 52° W 23:26:14 10° NNW
GP-B 3.7 23:20:57 10° NNE 23:25:12 43° E 23:26:01 39° ESE
Cosmos 1943 Rocket 2.5 23:20:54 10° NNW 23:26:20 57° ENE 23:28:53 30° SE
Meteor 1-4 Rocket 2.3 23:23:14 10° N 23:26:36 83° NW 23:26:36 83° NW
Cosmos 1892 4.3 23:30:16 23° E 23:30:26 23° E 23:33:32 10° NE
Cosmos 1441 Rocket 4.0 23:29:44 38° WSW 23:30:29 43° WNW 23:34:09 10° N
MTI 4.3 23:30:01 10° NNE 23:32:27 50° NE 23:32:27 50° NE
ALOS 2 2.7 23:35:17 52° SSW 23:36:02 62° W 23:40:24 10° NNW
Tsikada Rocket 3.9 23:34:14 40° S 23:36:40 86° E 23:42:51 10° N
SL-4 R/B 3.0 23:34:14 10° W 23:38:03 42° NNW 23:41:37 10° NE
USA 229 DEB 3.9 23:38:46 38° SSE 23:40:37 49° ESE 23:47:04 10° NE
USA 229 3.9 23:38:53 38° SSE 23:40:44 48° ESE 23:47:10 10° NE
NOSS 3-1 (C) 3.1 23:46:44 41° SSW 23:48:43 82° SE 23:54:57 10° NE
Cosmos 1626 Rocket 4.1 23:49:24 40° WSW 23:50:31 50° WNW 23:54:50 10° N
Cosmos 724 4.4 23:46:20 10° NW 23:52:25 63° WSW 23:54:20 42° S
Cosmos 1408 3.7 23:53:09 32° E 23:53:10 32° E 23:56:30 10° NNE
Elektron 1 4.4 23:51:30 10° NW 23:53:44 48° WNW 23:53:44 48° WNW
Cosmos 1825 4.0 23:54:28 20° E 23:54:45 20° E 23:57:34 10° NE
OPS 6432 4.5 23:52:14 10° NW 23:54:58 71° NNW 23:54:58 71° NNW
